Location: Standeford and Andreas Observatories
(44.1397°N, 93.9969°W)
Time: 05:00:14
(UTC-05:00)

Cosmos 1500 Rocket - Visible Passes

Search period start: 22 May 2015 00:00
Search period end: 01 June 2015 00:00
Orbit: 604 x 632 km, 82.5° (Epoch: 20 May)

Date Brightness Start Highest point End Pass type
(mag) Time Alt. Az. Time Alt. Az. Time Alt. Az.
22 May 5.4 00:10:54 19° ENE 00:10:54 19° ENE 00:13:40 10° NE visible
22 May 4.5 01:48:02 39° WNW 01:48:02 39° WNW 01:52:13 10° N visible
23 May 4.7 00:27:49 34° ENE 00:27:49 34° ENE 00:31:26 10° NNE visible
23 May 5.2 02:04:56 23° W 02:05:21 23° WNW 02:08:52 10° NNW visible
24 May 3.8 00:44:43 61° ENE 00:44:43 61° ENE 00:48:50 10° NNE visible
24 May 5.9 02:21:50 13° W 02:22:49 13° WNW 02:24:56 10° NW visible
24 May 5.9 23:24:29 11° E 23:24:29 11° E 23:25:43 10° ENE visible
25 May 3.7 01:01:36 70° WNW 01:01:36 70° WNW 01:05:59 10° N visible
25 May 5.3 23:41:21 20° E 23:41:21 20° E 23:44:27 10° NE visible
26 May 4.5 01:18:29 38° W 01:18:46 38° WNW 01:22:56 10° N visible
26 May 4.5 23:58:13 35° E 23:58:13 35° E 00:02:11 10° NNE visible
27 May 5.3 01:35:20 21° W 01:36:07 22° WNW 01:39:34 10° NNW visible
28 May 3.6 00:15:03 65° ESE 00:15:09 66° E 00:19:34 10° NNE visible
28 May 6.0 01:52:11 12° W 01:53:35 13° WNW 01:55:34 10° NW visible
28 May 5.8 22:54:46 12° E 22:54:56 12° E 22:56:36 10° ENE visible
29 May 3.6 00:31:53 64° WSW 00:32:16 68° W 00:36:43 10° N visible
29 May 5.1 23:11:34 21° E 23:11:50 21° E 23:15:13 10° NE visible
30 May 4.6 00:48:41 34° W 00:49:30 37° WNW 00:53:38 10° N visible
30 May 4.3 23:28:22 35° ESE 23:28:50 36° E 23:32:56 10° NNE visible
31 May 5.5 01:05:29 19° W 01:06:51 21° WNW 01:10:14 10° NNW visible
31 May 3.5 23:45:08 56° SSE 23:45:52 68° E 23:50:17 10° NNE visible
